This demonstration page uses our WeatherBlox Daily Observations layout. Learn more.

Left ArrowRight Arrow

Hourly Observations for January 1, 2016

Temp ( °F °C ) Dew Point ( °F °C ) Humidity (%) Winds ( mph kmh ) Pressure ( in mb ) Visibility ( mi km ) Precip ( " mm )
12:54 am 00:54 Clear 22 -5.6 14 -10 71 71 WNW 8 13 30.48 1032 10 16 0.00 0.00
1:54 am 01:54 Clear 21 -6.1 13 -10.6 71 71 W 10 17 30.48 1032 10 16 0.00 0.00
2:54 am 02:54 Clear 21 -6.1 14 -10 74 74 WNW 5 7 30.48 1032 10 16 0.00 0.00
3:54 am 03:54 Clear 22 -5.6 14 -10 71 71 W 6 9 30.48 1032 10 16 0.00 0.00
4:54 am 04:54 Clear 21 -6.1 13 -10.6 71 71 Calm 30.47 1032 10 16 0.00 0.00
5:54 am 05:54 Clear 20 -6.7 13 -10.6 74 74 WNW 5 7 30.46 1032 10 16 0.00 0.00
6:54 am 06:54 Clear 20 -6.7 12 -11.1 71 71 Calm 30.46 1032 10 16 0.00 0.00
7:54 am 07:54 Sunny 20 -6.7 12 -11.1 71 71 W 6 9 30.46 1032 10 16 0.00 0.00
8:54 am 08:54 Sunny 21 -6.1 12 -11.1 68 68 WSW 10 17 30.45 1031 10 16 0.00 0.00
9:54 am 09:54 Sunny 27 -2.8 15 -9.4 61 61 W 14 22 30.42 1030 10 16 0.00 0.00
10:54 am 10:54 Sunny 30 -1.1 17 -8.3 58 58 WSW 13 20 30.42 1030 10 16 0.00 0.00
11:54 am 11:54 Sunny 32 0 17 -8.3 54 54 WSW 12 19 30.40 1030 10 16 0.00 0.00
12:54 pm 12:54 Sunny 34 1.1 19 -7.2 54 54 WSW 9 15 30.35 1028 10 16 0.00 0.00
1:54 pm 13:54 Sunny 36 2.2 19 -7.2 50 50 W 15 24 30.33 1027 10 16 0.00 0.00
2:54 pm 14:54 Sunny 37 2.8 20 -6.7 50 50 WSW 13 20 30.33 1027 10 16 0.00 0.00
3:54 pm 15:54 Sunny 37 2.8 21 -6.1 52 52 WSW 13 20 30.33 1027 10 16 0.00 0.00
4:54 pm 16:54 Sunny 35 1.7 21 -6.1 57 57 SW 5 7 30.34 1027 10 16 0.00 0.00
5:54 pm 17:54 Clear 25 -4 16 -9 69 69 SW 5 7 30.45 1031 10 16 0.00 0.00
6:54 pm 18:54 Clear 31 -0.6 22 -5.6 69 69 WSW 8 13 30.33 1027 10 16 0.00 0.00
7:54 pm 19:54 Clear 30 -1.1 21 -6.1 69 69 W 3 6 30.33 1027 10 16 0.00 0.00
8:54 pm 20:54 Clear 26 -3.3 19 -7.2 75 75 Calm 30.33 1027 10 16 0.00 0.00
9:54 pm 21:54 Clear 28 -2.2 19 -7.2 69 69 Calm 30.33 1027 10 16 0.00 0.00
10:54 pm 22:54 Clear 23 -5 17 -8.3 78 78 Calm 30.33 1027 10 16 0.00 0.00
11:54 pm 23:54 Clear 23 -5 16 -8.9 74 74 Calm 30.34 1027 10 16 0.00 0.00

Powered by AerisWeather